Flag for Germany Weather past 2 weeks in Ravensburg, Baden-Württemberg, Germany

Now
64 °F

Scattered clouds.


Feels Like: 64 °F
Forecast: 45 / 69 °F
Wind: 3 mph from Southwest

Location: Friedrichshafen Airport

Current Time: Aug 21, 2014 at 8:43:20 PM

Latest Report: Aug 21, 2014 at 7:50 PM


Visibility: N/A

Pressure: 30.01 "Hg

Humidity: 43%

Dew point: 41 °F

Location of RavensburgLocation

Historic Weather in Ravensburg — Graph

°F

Ravensburg temperature yesterday

Maximum temperature yesterday: 64 °F (at 1:20 PM)
Minimum temperature yesterday: 55 °F (at 6:20 AM)
Average temperature yesterday: 59 °F

Past Weeks' High & Low Weather Summary

 TemperatureHumidityPressure
High82 °F (Aug 10, 3:50 PM)94% (Aug 8, 3:50 AM)30.21 "Hg (Aug 8, 3:50 AM)
Low45 °F (Aug 17, 6:20 AM)30% (Aug 21, 6:20 PM)29.68 "Hg (Aug 13, 12:20 PM)
Average62 °F70%29.99 "Hg
* Reported Aug 6 7:20 PM — Aug 21 7:20 PM, Ravensburg, Weather by CustomWeather, © 2014

Note: Actual official high and low records may vary slightly from our data, if they occured in-between our weather recording intervals... More about our weather records

Advertising

Ravensburg weather history for previous 24 hours

 ConditionsComfort  
Time TempWeatherWind HumidityBarometerVisibility
7:20 PM
Aug 21
68 °FSunny.2 mph35%30.01 "Hg10 mi
6:50 PM68 °FPassing clouds.5 mph35%30.01 "HgN/A
6:20 PM68 °FPassing clouds.5 mph30%30.01 "HgN/A
5:50 PM70 °FSunny.3 mph38%30.01 "Hg10 mi
5:20 PM68 °FPassing clouds.5 mph35%30.01 "HgN/A
4:50 PM68 °FPassing clouds.6 mph38%30.01 "HgN/A
4:20 PM68 °FPassing clouds.6 mph35%30.01 "HgN/A
3:50 PM68 °FPassing clouds.8 mph38%30.04 "HgN/A
3:20 PM68 °FScattered clouds.6 mph40%30.04 "HgN/A
2:50 PM68 °FScattered clouds.5 mph35%30.04 "HgN/A
2:20 PM68 °FPassing clouds.5 mph38%30.07 "HgN/A
1:50 PM66 °FPassing clouds.3 mph40%30.07 "HgN/A
1:20 PM64 °FPassing clouds.5 mph46%30.07 "HgN/A
12:50 PM64 °FScattered clouds.5 mph43%30.07 "HgN/A
12:20 PM64 °FScattered clouds.5 mph52%30.07 "HgN/A
11:50 AM64 °FScattered clouds.3 mph49%30.07 "HgN/A
11:20 AM63 °FScattered clouds.3 mph52%30.07 "HgN/A
10:50 AM63 °FPassing clouds.3 mph56%30.09 "HgN/A
10:20 AM61 °FScattered clouds.2 mph63%30.09 "HgN/A
9:50 AM61 °FBroken clouds.3 mph63%30.09 "HgN/A
9:20 AM59 °FPartly sunny.2 mph72%30.09 "HgN/A
8:50 AM59 °FPartly sunny.2 mph72%30.09 "HgN/A
8:20 AM55 °FPartly sunny.1 mph82%30.09 "HgN/A
7:50 AM55 °FPartly sunny.1 mph82%30.09 "HgN/A
7:20 AM52 °FPassing clouds.2 mph88%30.09 "HgN/A
6:50 AM50 °FPassing clouds.2 mph94%30.07 "HgN/A
6:20 AM52 °FPassing clouds.2 mph88%30.07 "HgN/A
5:50 AM52 °FPassing clouds.2 mph88%30.07 "HgN/A
5:20 AM52 °FPassing clouds.2 mph88%30.07 "HgN/A
4:50 AM54 °FOvercast.2 mph82%30.07 "HgN/A
4:20 AM52 °FMostly cloudy.2 mph88%30.07 "HgN/A
3:50 AM52 °FClear.No wind88%30.07 "Hg10 mi
3:20 AM54 °FLight rain. Mostly cloudy.No wind82%30.07 "HgN/A
2:50 AM55 °FMostly cloudy.1 mph77%30.07 "HgN/A
2:20 AM55 °FMostly cloudy.No wind77%30.07 "HgN/A
1:50 AM55 °FSprinkles. Mostly cloudy.1 mph77%30.07 "HgN/A
1:20 AM55 °FMostly cloudy.2 mph77%30.07 "HgN/A
12:50 AM55 °FMostly cloudy.2 mph77%30.04 "HgN/A
12:20 AM55 °FMostly cloudy.3 mph77%30.04 "HgN/A
11:50 PM
Aug 20
55 °FPassing clouds.5 mph77%30.04 "HgN/A
11:20 PM57 °FPassing clouds.2 mph72%30.04 "HgN/A
10:50 PM57 °FPassing clouds.5 mph77%30.04 "HgN/A
10:20 PM57 °FOvercast.2 mph82%30.01 "HgN/A
9:50 PM59 °FMostly cloudy.2 mph77%30.01 "HgN/A
9:20 PM59 °FSunny.3 mph77%30.01 "Hg10 mi
8:50 PM59 °FLight rain. More clouds than sun.2 mph77%30.01 "HgN/A
8:20 PM59 °FMore clouds than sun.No wind77%30.01 "HgN/A
Weather by CustomWeather, © 2014

See weather overviewHow to use our weather pages